This is the latest recevied weather packets stored in our database for station/object W9KHP-1. If no packets are shown the sender has not sent any weather packets the latest 10 day(s).
| Time | Temp. | Humidity | Pressure | Rain* | Wind** | Luminosity | Snow |
|---|---|---|---|---|---|---|---|
| 1777912625 | 25° C | 54% | 1011.8 hPa | 0 mm | - | 657 W/m² | - |
| 1777912321 | 25° C | 59% | 1012 hPa | 0 mm | - | 593 W/m² | - |
| 1777912017 | 23.89° C | 56% | 1011.9 hPa | 0 mm | - | 589 W/m² | - |
| 1777911713 | 23.89° C | 57% | 1012.1 hPa | 0 mm | - | 684 W/m² | - |
| 1777911409 | 23.33° C | 57% | 1012.2 hPa | 0 mm | - | 675 W/m² | - |
| 1777911107 | 23.33° C | 60% | 1011.9 hPa | 0 mm | - | 668 W/m² | - |
| 1777910805 | 22.78° C | 59% | 1012 hPa | 0 mm | - | 661 W/m² | - |
| 1777910501 | 23.33° C | 57% | 1011.9 hPa | 0 mm | - | 651 W/m² | - |
| 1777910198 | 22.78° C | 61% | 1011.8 hPa | 0 mm | - | 643 W/m² | - |
| 1777909895 | 22.78° C | 60% | 1012.1 hPa | 0 mm | - | 635 W/m² | - |
| 1777909592 | 22.22° C | 59% | 1012.2 hPa | 0 mm | - | 627 W/m² | - |
| 1777909289 | 21.67° C | 61% | 1012.3 hPa | 0 mm | - | 618 W/m² | - |
| 1777908987 | 21.11° C | 60% | 1012.3 hPa | 0 mm | - | 611 W/m² | - |
| 1777908685 | 21.11° C | 60% | 1012.3 hPa | 0 mm | - | 601 W/m² | - |
| 1777908381 | 20.56° C | 62% | 1012.4 hPa | 0 mm | - | 590 W/m² | - |
| 1777908078 | 20.56° C | 63% | 1012.3 hPa | 0 mm | - | 563 W/m² | - |
| 1777907774 | 20.56° C | 64% | 1012.3 hPa | 0 mm | - | 363 W/m² | - |
| 1777907468 | 20° C | 63% | 1012.5 hPa | 0 mm | - | 316 W/m² | - |
| 1777907166 | 20.56° C | 62% | 1012.3 hPa | 0 mm | - | 316 W/m² | - |
| 1777906863 | 20.56° C | 64% | 1012.6 hPa | 0 mm | - | 267 W/m² | - |
| 1777906560 | 20° C | 64% | 1012.5 hPa | 0 mm | - | 90 W/m² | - |
| 1777906255 | 20° C | 64% | 1012.7 hPa | 0 mm | - | 215 W/m² | - |
| 1777905952 | 19.44° C | 63% | 1012.8 hPa | 0 mm | - | 92 W/m² | - |
| 1777905649 | 18.89° C | 64% | 1012.8 hPa | 0 mm | - | 171 W/m² | - |
| 1777905346 | 18.89° C | 66% | 1012.8 hPa | 0 mm | - | 197 W/m² | - |
* Rain latest hour (hover to see other rain measurements)
** Current wind speed in m/s (hover to see current wind gust speed)